Location: G�ppingen
(48.7000°N, 9.6670°E)
Time: 19:25:42
(UTC+02:00)

Envisat - Visible Passes

Search period start: 16 August 2017 00:00
Search period end: 26 August 2017 00:00
Orbit: 764 x 766 km, 98.2° (Epoch: 16 August)

Date Brightness Start Highest point End Pass type
(mag) Time Alt. Az. Time Alt. Az. Time Alt. Az.
16 Aug 3.1 21:02:14 10° SSE 21:07:18 89° ENE 21:12:26 10° NNW visible
16 Aug 5.6 22:44:31 10° WSW 22:47:03 14° W 22:49:35 10° WNW visible
17 Aug 4.9 22:05:35 10° SSW 22:09:54 28° W 22:14:15 10° NW visible
18 Aug 3.7 21:27:59 10° S 21:32:57 56° W 21:37:59 10° NNW visible
19 Aug 5.5 22:32:32 10° SW 22:35:48 17° W 22:39:05 10° NW visible
20 Aug 4.6 21:54:08 10° SSW 21:58:43 34° W 22:03:21 10° NNW visible
21 Aug 3.3 21:16:47 10° S 21:21:51 70° WSW 21:26:56 10° NNW visible
22 Aug 5.3 22:20:47 10° SW 22:24:35 21° W 22:28:24 10° NW visible
23 Aug 4.2 21:42:46 10° SSW 21:47:33 42° W 21:52:23 10° NNW visible
24 Aug 3.1 21:05:39 10° SSE 21:10:44 85° WSW 21:15:52 10° NNW visible
24 Aug 5.7 22:48:26 10° WSW 22:50:33 12° W 22:52:40 10° WNW visible
25 Aug 5.0 22:09:11 10° SSW 22:13:22 26° W 22:17:36 10° NW visible
